Location: Chozas de Canales
(40.1001°N, 4.0433°W)
Time: 03:53:59
(UTC+00:00)

Daily predictions for brighter satellites

Satellite Brightness Start Highest point End
(mag) Time Altitude Azimuth Time Altitude Azimuth Time Altitude Azimuth
MetOp-A 4.4 00:06:33 42° NNE 00:06:33 42° NNE 00:09:26 10° N
Cosmos 2082 Rocket 2.0 00:03:13 10° NNW 00:08:51 80° WSW 00:09:02 79° SW
Cosmos 2278 Rocket 3.7 00:06:22 21° W 00:09:05 30° WNW 00:14:04 10° N
SL-8 R/B 3.9 00:15:45 65° NNW 00:15:49 65° NNW 00:20:33 10° NE
Cosmos 1110 Rocket 3.9 00:11:34 10° NNW 00:16:32 75° WNW 00:16:32 75° WNW
Cosmos 1610 Rocket 4.4 00:11:25 10° N 00:17:49 89° E 00:18:49 66° S
Cosmos 1452 Rocket 3.5 00:15:26 10° NNW 00:20:42 73° ENE 00:20:55 72° E
Cosmos 2154 Rocket 4.1 00:15:12 10° NNW 00:21:16 58° W 00:22:04 54° WSW
Cosmos 2184 Rocket 4.3 00:15:21 10° NNW 00:21:25 53° W 00:22:19 49° WSW
NOSS 3-1 (C) 3.3 00:22:32 50° ENE 00:22:32 50° ENE 00:26:44 10° NE
CZ-3B R/B 3.4 00:28:33 55° SSW 00:30:06 74° SE 00:50:38 10° NE
Cosmos 967 Rocket 4.4 00:29:04 65° SSW 00:30:09 89° ESE 00:36:40 10° NNE
Cosmos 972 Rocket 4.0 00:28:59 10° NNW 00:34:36 73° ENE 00:34:56 70° ESE
COSMOS 2406 3.1 00:30:39 10° NNW 00:36:22 79° ENE 00:37:01 69° SE
ARIANE 5 R/B 4.4 00:37:48 21° WNW 00:37:48 21° WNW 00:40:26 10° NW
Cosmos 2341 Rocket 4.2 00:30:53 10° N 00:37:03 61° E 00:38:22 50° SE
IRIDIUM 104 4.2 00:34:12 10° N 00:39:26 80° W 00:39:29 80° WSW
SL-4 R/B 4.3 00:42:23 14° NE 00:42:23 14° NE 00:42:53 10° NE
SL-8 Rocket 4.0 00:34:39 10° N 00:40:48 68° E 00:41:58 56° SE
Cosmos 2297 3.7 00:45:21 64° SE 00:45:40 66° ESE 00:51:21 10° NNE
IRIDIUM 114 4.4 00:43:23 10° N 00:48:34 66° W 00:48:37 65° W
GEOS 3 Rocket 4.2 00:50:02 44° W 00:50:02 44° W 00:54:28 10° NW
Cosmos 2369 Rocket 2.0 00:50:46 78° S 00:51:08 84° ESE 00:56:45 10° NNE
Lacrosse 4 Rocket 3.9 00:50:55 10° N 00:53:52 18° NE 00:56:30 11° E
CZ-2C R/B 2.8 00:55:17 55° W 00:55:17 55° W 01:00:15 10° NNW
Cosmos 2228 Rocket 3.5 00:59:27 56° NW 00:59:27 56° NW 01:03:16 10° N
ADEOS Rocket 4.3 00:59:01 10° NE 01:04:02 26° E 01:05:49 22° ESE
Okean 1-7 4.4 01:06:59 28° WNW 01:06:59 28° WNW 01:10:11 10° NNW
Cosmos 1818 3.5 01:09:43 69° SE 01:10:01 71° ESE 01:15:27 10° NE
Geosat 4.2 01:05:55 10° NNE 01:10:49 59° WNW 01:11:26 54° W
Meteor 1-24 Rocket 4.3 01:13:42 45° WSW 01:14:46 50° WNW 01:20:37 10° N
ARIANE 6 FM1 Upper Stage 3.6 01:16:12 41° NW 01:16:14 41° NW 01:20:10 10° NNE
Meteor 2-5 Rocket 4.1 01:16:25 49° WSW 01:17:18 54° WNW 01:23:01 10° N
Cosmos 1300 Rocket 4.0 01:14:44 10° N 01:18:59 52° E 01:19:07 52° E
Cosmos 1315 Rocket 4.1 01:16:48 10° NNW 01:19:10 31° NW 01:19:10 31° NW
CRYOSAT 2 4.4 01:21:32 63° W 01:21:32 63° W 01:26:22 10° NNW
Cosmos 1703 Rocket 3.7 01:25:41 63° NW 01:25:41 63° NW 01:29:45 10° N
Cosmos 1302 Rocket 4.5 01:21:38 10° NNW 01:26:24 45° W 01:26:24 45° W
Cosmos 2181 Rocket 4.0 01:25:44 54° SW 01:27:09 72° W 01:33:32 10° N
ATLAS 5 CENTAUR R/B 3.3 01:30:58 14° NW 01:30:58 14° NW 01:32:25 10° N
Nadezhda 3 Rocket 4.1 01:29:56 46° SSE 01:31:46 68° E 01:37:58 10° NNE
Cosmos 2366 rocket 4.3 01:28:35 10° NNW 01:34:40 49° W 01:35:49 44° WSW
SJ 16-02 3.1 01:39:46 19° ESE 01:40:29 20° E 01:43:35 10° NE
Cosmos 921 Rocket 3.6 01:41:10 43° ESE 01:41:21 43° ESE 01:45:20 10° NNE
Kakehashi 4.4 01:40:50 41° S 01:41:49 43° SSE 01:53:44 10° E
USA 308 3.9 01:41:52 32° NW 01:42:08 32° NNW 01:45:54 10° NE
PSLV R/B 3.9 01:38:37 10° N 01:42:06 68° NNW 01:42:06 68° NNW
Nimbus 7 Rocket 4.4 01:39:56 10° NNE 01:45:49 71° ESE 01:47:36 45° S
ACS3 Solar Sail 2.8 01:41:41 10° N 01:46:32 30° WNW 01:48:09 26° W
Cosmos 1821 Rocket 4.1 01:43:33 10° NNW 01:49:29 56° W 01:50:51 46° SW
COSMOS 2455 3.0 01:47:53 45° WSW 01:49:40 67° WNW 01:55:40 10° NNE
Spot 1 4.2 01:45:16 10° NNE 01:50:15 86° WNW 01:51:01 64° SSW
Meteor 2-8 Rocket 4.4 01:44:16 10° N 01:50:26 75° W 01:52:17 47° SSW
IDEFIX/ARIANE 42P 2.6 01:50:32 10° NNE 01:55:46 73° ESE 01:57:12 48° S
Cosmos 220 Rocket 4.3 01:54:01 10° NNW 01:57:31 47° WNW 01:57:31 47° WNW
NOSS 3-1 (A) 3.3 02:01:56 42° W 02:03:07 53° NW 02:08:23 10° NNE
Cosmos 1833 4.2 02:06:05 10° NNW 02:11:40 63° WSW 02:13:33 41° S
Cosmos 1140 Rocket 3.6 02:11:29 44° WSW 02:12:46 58° WNW 02:17:49 10° NNE
Cosmos 1656 4.2 02:11:01 32° SSE 02:13:07 49° ESE 02:18:24 10° NE
Resurs 1-4 Rocket 3.8 02:09:18 10° NE 02:13:35 25° E 02:17:13 13° SE
Cosmos 1346 Rocket 2.4 02:14:57 80° W 02:15:00 80° W 02:18:39 10° N
SL-4 R/B 4.0 02:15:45 12° NW 02:17:19 17° NNW 02:19:26 10° NNE
H-2A R/B 3.9 02:14:58 10° NE 02:19:03 23° E 02:23:02 10° SE
Cosmos 1782 Rocket 4.2 02:17:51 10° NNW 02:21:54 37° W 02:22:02 36° W
Cosmos 371 Rocket 3.2 02:23:01 45° SSW 02:24:30 89° SE 02:29:22 10° NNE
Cosmos 304 Rocket 3.7 02:25:25 45° SW 02:26:48 75° WNW 02:31:35 10° NNE
Cosmos 1763 Rocket 3.8 02:22:43 10° NNW 02:27:44 61° ENE 02:32:33 11° SSE
Cosmos 381 Rocket 4.5 02:25:02 35° SSW 02:27:52 75° WNW 02:34:18 10° NNE
Lacrosse 4 Rocket 1.7 02:27:50 10° NW 02:31:50 44° WSW 02:31:50 44° WSW
Cosmos 2297 Rocket 4.1 02:30:34 10° N 02:35:29 30° ENE 02:40:23 10° ESE
Cosmos 2369 Rocket 4.3 02:32:39 10° W 02:35:52 15° NW 02:39:07 10° NNW
Cosmos 1025 Rocket 3.4 02:34:41 28° SSE 02:36:44 58° E 02:41:01 10° NNE
MOZ.5/SAFIR/RUBIN 5/SL-8 4.2 02:35:42 14° SSE 02:39:35 60° ENE 02:44:08 10° N
FENGYUN 3A 3.9 02:38:57 10° N 02:44:11 55° WNW 02:46:39 30° SW
CZ-2D R/B 3.0 02:41:15 10° NNE 02:46:29 46° E 02:50:45 15° SSE
MSX 4.5 02:41:28 10° N 02:46:51 41° WNW 02:49:36 25° WSW
ADEOS Rocket 3.5 02:43:55 10° N 02:49:46 44° WNW 02:52:44 25° SW
DMSP B5D2-2 4.3 02:45:18 10° SSE 02:50:31 74° ENE 02:55:47 10° N
ATLAS 3B R/B 4.2 02:45:20 11° S 02:51:31 33° ESE 02:58:17 10° NE
NOSS 2-2 (C) 4.2 02:50:57 10° NNW 02:54:51 60° NE 03:00:17 10° SE
ALOS 2.8 02:51:24 10° NNE 02:55:51 53° E 02:59:09 17° S
SL-24 DEB 4.0 02:54:34 21° S 02:57:28 90° NNE 03:01:55 10° N
Cosmos 2360 4.2 02:54:41 27° SSW 02:57:57 82° WNW 03:03:41 10° NNE
MOS 1-B Rocket 4.5 02:53:23 10° N 02:59:07 44° WNW 03:02:16 23° SW
Cosmos 2242 Rocket 4.4 02:57:51 27° WSW 02:59:17 35° WNW 03:03:20 10° N
NPP 4.4 02:55:00 10° N 02:59:59 40° WNW 03:02:48 23° WSW
Cosmos 405 Rocket 2.7 03:06:51 33° W 03:07:17 35° WNW 03:10:04 10° N
Cosmos 1378 Rocket 4.3 03:05:42 26° WSW 03:07:18 35° WNW 03:11:14 10° N
Cosmos 2292 Rocket 3.3 03:06:53 21° SSE 03:08:33 52° E 03:11:39 10° NNE
Dummy Sat-02 4.5 03:05:30 10° N 03:09:07 86° E 03:11:38 19° S
Cosmos 2084 Rocket 3.7 03:07:47 23° S 03:09:58 52° ESE 03:13:54 10° NE
Cosmos 374 Rocket 4.2 03:09:55 26° SSW 03:12:07 86° ESE 03:15:53 10° NE
Okean 2 Rocket 3.0 03:09:31 10° N 03:13:55 88° WSW 03:18:10 10° S
Envisat 3.0 03:09:48 10° N 03:14:50 67° WNW 03:18:23 19° SSW
SeaSat 1 3.0 03:10:18 10° SE 03:15:06 60° ENE 03:19:56 10° NNW
SJ 16-02 2.3 03:16:15 21° WSW 03:18:18 31° WNW 03:22:06 10° N
Cosmos 1727 Rocket 4.1 03:12:37 10° S 03:18:48 78° E 03:25:01 10° N
CENTAUR R/B 4.1 03:11:42 10° NNW 03:20:00 56° NE 03:29:17 10° SE
Cosmos 2151 Rocket 3.9 03:18:15 10° NNW 03:22:36 50° W 03:26:00 16° SSW
USA 229 DEB 3.6 03:18:15 17° SSW 03:22:51 67° ESE 03:29:17 10° NE
USA 229 3.7 03:18:16 16° SSW 03:22:55 65° ESE 03:29:19 10° NE
Gbstr 26 Del rocket 4.5 03:19:27 18° SW 03:24:39 66° SE 03:32:17 10° ENE
Cosmos 968 Rocket 4.4 03:21:53 10° S 03:26:49 44° ESE 03:31:47 10° NNE
Meteor 2-16 Rocket 4.5 03:20:59 10° S 03:27:04 87° E 03:33:11 10° N
Meteor 2-21 Rocket 4.5 03:22:53 12° S 03:28:39 79° W 03:34:54 10° N
Cosmos 1862 4.1 03:25:25 10° SSE 03:28:45 42° E 03:32:07 10° NNE
Cosmos 2221 Rocket 3.8 03:27:47 17° SSW 03:31:07 56° W 03:35:34 10° N
SL-16 R/B 4.2 03:26:22 10° SE 03:31:54 36° ENE 03:37:28 10° N
Cosmos 841 Rocket 4.2 03:28:57 10° N 03:34:05 57° ENE 03:39:08 10° SSE
Cosmos 2173 Rocket 4.4 03:28:41 10° N 03:34:58 66° E 03:41:08 10° SSE
METEOR-M 4.3 03:30:29 10° NNE 03:35:50 73° ESE 03:41:09 10° S
Cosmos 1190 Rocket 4.3 03:32:23 16° SW 03:36:25 54° WNW 03:41:33 10° N
Cosmos 540 Rocket 4.2 03:32:42 10° NW 03:37:12 32° W 03:41:39 10° SSW
Cosmos 1954 Rocket 4.1 03:34:15 15° SSW 03:38:28 62° WNW 03:43:35 10° NNE
ADEOS II 2.1 03:37:56 10° N 03:43:10 74° WNW 03:48:21 10° SSW
Cosmos 2100 Rocket 4.2 03:37:10 10° N 03:43:28 79° E 03:49:39 10° S
Cosmos 1697 Rocket 2.7 03:40:53 11° SSW 03:46:15 85° WNW 03:51:54 10° NNE
Sich 1 Rocket 4.0 03:44:13 10° NNW 03:48:35 47° W 03:52:53 10° SSW
Cosmos 2227 Rocket 3.5 03:43:57 10° NNW 03:49:24 46° ENE 03:54:46 10° SE
Okean 1 Rocket 3.7 03:47:04 10° NNW 03:51:01 35° W 03:54:56 10° SSW
H-2A R/B 2.2 03:48:54 10° S 03:52:41 64° WSW 03:56:34 10° NNW
Atlas 2A Centaur Rocket 3.8 03:49:51 11° SSW 03:52:45 21° SSE 03:59:59 10° ESE
Resurs 1-4 Rocket 2.8 03:48:35 10° N 03:53:25 39° WNW 03:58:16 10° SW
Cosmos 1782 2.5 03:51:50 10° NNW 03:55:19 61° W 03:58:46 10° S
Cosmos 2251 Rocket 4.4 03:51:25 12° SW 03:55:58 36° WNW 04:00:54 10° N
USA 234 3.3 03:50:11 10° NE 03:56:46 83° SE 04:03:18 10° SW
Cosmos 2058 2.8 03:53:26 10° S 03:57:17 81° E 04:01:12 10° N
H-2A R/B 2.7 03:53:34 10° N 03:58:29 41° WNW 04:03:14 10° SW
Cosmos 332 Rocket 4.3 03:54:22 11° SW 03:58:41 43° WNW 04:03:13 10° N
Meteor 1-27 4.4 03:53:54 10° NNW 03:59:33 60° W 04:05:15 10° S
Cosmos 1437 Rocket 2.4 03:59:02 10° N 04:02:29 89° W 04:05:53 10° S
USA 281 3.9 03:58:30 10° SE 04:04:57 63° ENE 04:11:25 10° NNW
Cosmos 1975 Rocket 3.0 04:01:47 10° SSW 04:06:04 72° W 04:10:21 10° N
CZ-2C R/B 3.9 04:02:26 10° NNE 04:06:49 35° E 04:11:17 10° SSE
H-2A R/B 3.2 04:04:25 10° NNE 04:08:27 43° E 04:12:31 10° S
Cosmos 1802 Rocket 4.2 04:02:12 10° N 04:08:37 84° E 04:15:03 10° S
Cosmos 2228 2.9 04:05:54 10° NNW 04:10:07 70° W 04:14:18 10° S
